When you browse on this site, cookies collect data to enhance your experience and personalize the content and advertising you see.
Visit our Privacy Policy to learn more. By continuing to use the site, you agree to this use of cookies and data.
  • In Hungary
  • List of Countries
  • For 7 days
  • Water Temperature
  • Satellite Maps
  • Weather Map
  • News
  • Weather Widgets
  • user-avatar
    Login

    Hourly Weather Sahnovschina

    Today, 19 January, Saturday

    Time Temperature Precipitation Wind Pressure Humidity
    00:00 -2°C° 0 mm 4 mps 744 mmHg 97%
    01:00 -2°C° 0 mm 4 mps 744 mmHg 96%
    02:00 -3°C° 0 mm 4 mps 744 mmHg 96%
    03:00 -2°C° 0 mm 3 mps 744 mmHg 96%
    04:00 -4°C° 0 mm 3 mps 744 mmHg 96%
    05:00 -4°C° 0 mm 2 mps 744 mmHg 96%
    06:00 -4°C° 0.1 mm 2 mps 745 mmHg 96%
    07:00 -4°C° 0.1 mm 2 mps 745 mmHg 96%
    08:00 -3°C° 0.1 mm 2 mps 746 mmHg 96%
    09:00 -4°C° 0.1 mm 3 mps 746 mmHg 95%
    10:00 -3°C° 0.1 mm 4 mps 747 mmHg 93%
    11:00 -4°C° 0.1 mm 5 mps 747 mmHg 92%
    12:00 -4°C° 0 mm 4 mps 748 mmHg 91%
    13:00 -5°C° 0 mm 4 mps 748 mmHg 89%
    14:00 -7°C° 0 mm 4 mps 748 mmHg 88%
    15:00 -8°C° 0 mm 4 mps 749 mmHg 88%
    16:00 -9°C° 0 mm 3 mps 750 mmHg 89%
    17:00 -12°C° 0 mm 3 mps 750 mmHg 90%
    18:00 -12°C° 0 mm 3 mps 751 mmHg 90%
    19:00 -12°C° 0 mm 3 mps 751 mmHg 91%
    20:00 -12°C° 0 mm 2 mps 751 mmHg 92%
    21:00 -12°C° 0 mm 2 mps 752 mmHg 93%
    22:00 -13°C° 0 mm 2 mps 752 mmHg 94%
    23:00 -13°C° 0 mm 2 mps 752 mmHg 95%

    Tomorrow, 20 January, Sunday

    Time Temperature Precipitation Wind Pressure Humidity
    00:00 -13°C° 0 mm 2 mps 753 mmHg 96%
    01:00 -13°C° 0 mm 2 mps 753 mmHg 96%
    02:00 -14°C° 0 mm 2 mps 753 mmHg 97%
    03:00 -11°C° 0 mm 1 mps 753 mmHg 97%
    04:00 -11°C° 0 mm 1 mps 753 mmHg 97%
    05:00 -11°C° 0 mm 0 mps 753 mmHg 98%
    06:00 -11°C° 0 mm 0 mps 753 mmHg 97%
    07:00 -11°C° 0 mm 0 mps 753 mmHg 97%
    08:00 -11°C° 0 mm 1 mps 754 mmHg 97%
    09:00 -10°C° 0 mm 1 mps 754 mmHg 95%
    10:00 -9°C° 0 mm 1 mps 754 mmHg 94%
    11:00 -8°C° 0 mm 1 mps 754 mmHg 93%
    12:00 -8°C° 0 mm 1 mps 753 mmHg 93%
    13:00 -7°C° 0 mm 1 mps 753 mmHg 93%
    14:00 -7°C° 0 mm 1 mps 752 mmHg 93%
    15:00 -8°C° 0 mm 1 mps 752 mmHg 92%
    16:00 -10°C° 0 mm 2 mps 752 mmHg 92%
    17:00 -10°C° 0 mm 2 mps 751 mmHg 91%
    18:00 -10°C° 0 mm 2 mps 751 mmHg 91%
    19:00 -10°C° 0 mm 2 mps 751 mmHg 90%
    20:00 -10°C° 0 mm 2 mps 751 mmHg 90%
    21:00 -9°C° 0 mm 2 mps 751 mmHg 90%
    22:00 -9°C° 0 mm 2 mps 750 mmHg 90%
    23:00 -8°C° 0 mm 2 mps 750 mmHg 91%

    Day after tomorrow, 21 January, Monday

    Time Temperature Precipitation Wind Pressure Humidity
    00:00 -8°C° 0 mm 2 mps 750 mmHg 91%
    01:00 -7°C° 0 mm 2 mps 750 mmHg 91%
    02:00 -7°C° 0 mm 2 mps 749 mmHg 91%
    03:00 -7°C° 0.1 mm 2 mps 749 mmHg 91%
    04:00 -7°C° 0.1 mm 2 mps 748 mmHg 91%
    05:00 -7°C° 0.1 mm 2 mps 748 mmHg 91%
    06:00 -6°C° 0.2 mm 2 mps 747 mmHg 93%
    07:00 -6°C° 0.2 mm 2 mps 747 mmHg 95%
    08:00 -6°C° 0.2 mm 2 mps 747 mmHg 96%
    09:00 -6°C° 0.6 mm 2 mps 747 mmHg 97%
    10:00 -3°C° 0.6 mm 1 mps 746 mmHg 97%
    11:00 -2°C° 0.6 mm 1 mps 746 mmHg 97%
    12:00 -4°C° 0.4 mm 2 mps 746 mmHg 96%
    13:00 -5°C° 0.4 mm 3 mps 746 mmHg 95%
    14:00 -5°C° 0.4 mm 3 mps 745 mmHg 95%
    15:00 -5°C° 0.1 mm 4 mps 746 mmHg 94%
    16:00 -7°C° 0.1 mm 4 mps 746 mmHg 92%
    17:00 -7°C° 0.1 mm 5 mps 747 mmHg 91%
    18:00 -8°C° 0 mm 5 mps 747 mmHg 90%
    19:00 -9°C° 0 mm 4 mps 748 mmHg 89%
    20:00 -10°C° 0 mm 4 mps 749 mmHg 89%
    21:00 -12°C° 0 mm 4 mps 749 mmHg 90%
    22:00 -15°C° 0 mm 4 mps 750 mmHg 92%
    23:00 -16°C° 0 mm 4 mps 750 mmHg 93%

    22 January, Tuesday

    Time Temperature Precipitation Wind Pressure Humidity
    00:00 -16°C° 0 mm 3 mps 750 mmHg 92%
    01:00 -17°C° 0 mm 3 mps 751 mmHg 91%
    02:00 -17°C° 0 mm 3 mps 751 mmHg 90%
    03:00 -17°C° 0 mm 2 mps 751 mmHg 91%
    04:00 -17°C° 0 mm 2 mps 751 mmHg 91%
    05:00 -17°C° 0 mm 2 mps 751 mmHg 92%
    06:00 -15°C° 0 mm 1 mps 752 mmHg 92%
    07:00 -15°C° 0 mm 1 mps 752 mmHg 92%
    08:00 -16°C° 0 mm 0 mps 752 mmHg 92%
    09:00 -14°C° 0 mm 0 mps 752 mmHg 90%
    10:00 -12°C° 0 mm 0 mps 753 mmHg 89%
    11:00 -11°C° 0 mm 0 mps 753 mmHg 87%
    12:00 -10°C° 0 mm 0 mps 752 mmHg 88%
    13:00 -10°C° 0 mm 0 mps 752 mmHg 89%
    14:00 -10°C° 0 mm 0 mps 752 mmHg 90%
    15:00 -11°C° 0 mm 1 mps 752 mmHg 89%
    16:00 -12°C° 0 mm 1 mps 752 mmHg 88%
    17:00 -13°C° 0 mm 1 mps 751 mmHg 86%
    18:00 -16°C° 0 mm 2 mps 751 mmHg 86%
    19:00 -16°C° 0 mm 2 mps 751 mmHg 85%
    20:00 -16°C° 0 mm 2 mps 751 mmHg 84%
    21:00 -16°C° 0 mm 2 mps 751 mmHg 84%
    22:00 -17°C° 0 mm 2 mps 751 mmHg 83%
    23:00 -17°C° 0 mm 2 mps 751 mmHg 83%

    23 January, Wednesday

    Time Temperature Precipitation Wind Pressure Humidity
    00:00 -17°C° 0 mm 2 mps 750 mmHg 83%
    01:00 -17°C° 0 mm 2 mps 750 mmHg 83%
    02:00 -17°C° 0 mm 2 mps 750 mmHg 83%
    03:00 -17°C° 0 mm 2 mps 750 mmHg 82%
    04:00 -17°C° 0 mm 2 mps 750 mmHg 82%
    05:00 -16°C° 0 mm 2 mps 749 mmHg 82%
    06:00 -18°C° 0 mm 3 mps 749 mmHg 82%
    07:00 -18°C° 0 mm 3 mps 749 mmHg 81%
    08:00 -18°C° 0 mm 3 mps 749 mmHg 81%
    09:00 -17°C° 0 mm 3 mps 749 mmHg 82%
    10:00 -16°C° 0 mm 3 mps 749 mmHg 82%
    11:00 -15°C° 0 mm 3 mps 749 mmHg 83%
    12:00 -14°C° 0 mm 3 mps 749 mmHg 84%
    13:00 -14°C° 0 mm 3 mps 749 mmHg 86%
    14:00 -13°C° 0 mm 3 mps 748 mmHg 88%
    15:00 -15°C° 0 mm 4 mps 748 mmHg 90%
    16:00 -16°C° 0 mm 4 mps 748 mmHg 92%
    17:00 -17°C° 0 mm 4 mps 748 mmHg 93%
    18:00 -17°C° 0 mm 4 mps 748 mmHg 94%
    19:00 -17°C° 0 mm 5 mps 748 mmHg 95%
    20:00 -17°C° 0 mm 5 mps 748 mmHg 95%
    21:00 -15°C° 0 mm 5 mps 748 mmHg 95%
    22:00 -15°C° 0 mm 6 mps 748 mmHg 95%
    23:00 -15°C° 0 mm 6 mps 748 mmHg 95%

    24 January, Thursday

    Time Temperature Precipitation Wind Pressure Humidity
    00:00 -15°C° 0 mm 6 mps 748 mmHg 94%
    01:00 -15°C° 0 mm 6 mps 747 mmHg 93%
    02:00 -15°C° 0 mm 6 mps 747 mmHg 92%
    03:00 -15°C° 0 mm 6 mps 747 mmHg 93%
    04:00 -14°C° 0 mm 6 mps 746 mmHg 93%
    05:00 -12°C° 0 mm 6 mps 746 mmHg 94%
    06:00 -12°C° 0.1 mm 7 mps 746 mmHg 94%
    07:00 -9°C° 0.1 mm 7 mps 746 mmHg 94%
    08:00 -8°C° 0.1 mm 7 mps 746 mmHg 93%
    09:00 -8°C° 0.3 mm 7 mps 746 mmHg 93%
    10:00 -7°C° 0.3 mm 7 mps 746 mmHg 93%
    11:00 -6°C° 0.3 mm 7 mps 745 mmHg 94%
    12:00 -6°C° 0.2 mm 7 mps 745 mmHg 93%
    13:00 -4°C° 0.2 mm 6 mps 745 mmHg 93%
    14:00 -4°C° 0.2 mm 6 mps 745 mmHg 92%
    15:00 -4°C° 1 mm 6 mps 745 mmHg 94%
    16:00 -3°C° 1 mm 6 mps 745 mmHg 95%
    17:00 -3°C° 1 mm 6 mps 745 mmHg 96%
    18:00 -3°C° 0.5 mm 6 mps 745 mmHg 95%
    19:00 -4°C° 0.5 mm 6 mps 745 mmHg 94%
    20:00 -4°C° 0.5 mm 5 mps 745 mmHg 93%
    21:00 -4°C° 0 mm 5 mps 745 mmHg 93%
    22:00 -4°C° 0 mm 5 mps 745 mmHg 92%
    23:00 -4°C° 0 mm 5 mps 745 mmHg 92%
    Show more